EJU1695 LFMN-LIBD

Flight info

Callsign EJU1695
Flight time 1h 19m
Altitude 37000
Route SODRI DCT RAPUR DCT RATAP DCT BTA DCT DOKAR DCT SUNEV DCT EKTOL DCT DOGUS
Aircraft A319/M-SDE2E3FGIJ1RWXYZ/LB1

Departure

Time 2026-04-23 15:41
Airport Nice-Côte d'Azur Airport (LFMN)

Arrival

Time 2026-04-23 17:01
Airport Bari Karol Wojtyła International Airport (LIBD)
Time Latitude Longitude Altitude Speed Heading
2026-04-23 15:29 43.66047 7.20709 22 ft 0 kts 290°
2026-04-23 15:33 43.66045 7.20716 23 ft 3 kts 290°
2026-04-23 15:34 43.66038 7.20741 21 ft 3 kts 290°
2026-04-23 15:34 43.66032 7.20765 21 ft 3 kts 290°
2026-04-23 15:34 43.66025 7.20789 23 ft 3 kts 290°
2026-04-23 15:34 43.66023 7.20813 23 ft 3 kts 220°
2026-04-23 15:35 43.66033 7.20820 25 ft 0 kts 182°
2026-04-23 15:36 43.66031 7.20820 25 ft 1 kts 182°
2026-04-23 15:36 43.66007 7.20819 23 ft 6 kts 178°
2026-04-23 15:37 43.65953 7.20826 21 ft 10 kts 174°
2026-04-23 15:37 43.65875 7.20845 23 ft 13 kts 169°
2026-04-23 15:37 43.65783 7.20869 21 ft 14 kts 171°
2026-04-23 15:37 43.65686 7.20888 22 ft 14 kts 172°
2026-04-23 15:38 43.65585 7.20911 23 ft 15 kts 170°
2026-04-23 15:38 43.65482 7.20935 21 ft 15 kts 171°
2026-04-23 15:38 43.65374 7.20957 21 ft 15 kts 181°
2026-04-23 15:38 43.65289 7.20870 21 ft 16 kts 225°
2026-04-23 15:39 43.65209 7.20760 21 ft 17 kts 225°
2026-04-23 15:39 43.65126 7.20647 21 ft 17 kts 224°
2026-04-23 15:39 43.65040 7.20531 21 ft 17 kts 224°
2026-04-23 15:39 43.64955 7.20411 22 ft 18 kts 225°
2026-04-23 15:40 43.64866 7.20290 21 ft 18 kts 224°
2026-04-23 15:40 43.64770 7.20320 23 ft 14 kts 128°
2026-04-23 15:40 43.64780 7.20395 23 ft 0 kts 46°
2026-04-23 15:40 43.64815 7.20444 24 ft 34 kts 45°
2026-04-23 15:41 43.65178 7.20944 22 ft 109 kts 45°
2026-04-23 15:41 43.65866 7.21893 24 ft 168 kts 45°
2026-04-23 15:41 43.66675 7.23068 602 ft 168 kts 53°
2026-04-23 15:41 43.67038 7.24579 1158 ft 170 kts 98°
2026-04-23 15:42 43.66451 7.26003 1590 ft 184 kts 141°
2026-04-23 15:42 43.65402 7.27204 1957 ft 208 kts 141°
2026-04-23 15:42 43.64296 7.28553 2743 ft 214 kts 139°
2026-04-23 15:42 43.63180 7.29952 3551 ft 219 kts 137°
2026-04-23 15:43 43.62050 7.31391 4355 ft 224 kts 137°
2026-04-23 15:43 43.60893 7.32877 5152 ft 229 kts 136°
2026-04-23 15:43 43.59637 7.34273 5894 ft 237 kts 150°
2026-04-23 15:43 43.58102 7.35123 6723 ft 239 kts 158°
2026-04-23 15:44 43.56526 7.35909 7507 ft 242 kts 158°
2026-04-23 15:44 43.54938 7.36707 8308 ft 244 kts 157°
2026-04-23 15:44 43.53334 7.37519 9107 ft 247 kts 156°
2026-04-23 15:44 43.51714 7.38341 9902 ft 250 kts 156°
2026-04-23 15:45 43.50014 7.39212 10265 ft 273 kts 156°
2026-04-23 15:45 43.48176 7.40157 10552 ft 297 kts 156°
2026-04-23 15:45 43.46157 7.41188 10814 ft 321 kts 157°
2026-04-23 15:45 43.43981 7.42293 11339 ft 334 kts 157°
2026-04-23 15:46 43.41812 7.43386 12148 ft 339 kts 157°
2026-04-23 15:46 43.39585 7.44502 13072 ft 342 kts 157°
2026-04-23 15:46 43.37298 7.45649 14009 ft 346 kts 157°
2026-04-23 15:46 43.35034 7.46786 14782 ft 349 kts 157°
2026-04-23 15:47 43.32744 7.47941 15482 ft 352 kts 157°
2026-04-23 15:47 43.30457 7.49095 16137 ft 356 kts 157°
2026-04-23 15:47 43.28124 7.50270 16789 ft 359 kts 158°
2026-04-23 15:47 43.25735 7.51470 17446 ft 362 kts 158°
2026-04-23 15:48 43.23393 7.52645 18076 ft 366 kts 158°
2026-04-23 15:48 43.20980 7.53854 18688 ft 369 kts 158°
2026-04-23 15:48 43.18556 7.55070 19238 ft 373 kts 158°
2026-04-23 15:48 43.16122 7.56313 19779 ft 376 kts 155°
2026-04-23 15:49 43.13847 7.58067 20326 ft 377 kts 142°
2026-04-23 15:49 43.11919 7.60506 20874 ft 377 kts 128°
2026-04-23 15:49 43.10469 7.63475 21413 ft 378 kts 115°
2026-04-23 15:49 43.09555 7.66858 21970 ft 379 kts 101°
2026-04-23 15:50 43.09099 7.70411 22535 ft 382 kts 97°
2026-04-23 15:50 43.08665 7.74017 23094 ft 385 kts 98°
2026-04-23 15:50 43.08220 7.77650 23641 ft 389 kts 98°
2026-04-23 15:50 43.07770 7.81314 24116 ft 392 kts 98°
2026-04-23 15:51 43.07336 7.85009 24560 ft 395 kts 97°
2026-04-23 15:51 43.06913 7.88726 25009 ft 397 kts 97°
2026-04-23 15:51 43.06493 7.92463 25438 ft 399 kts 97°
2026-04-23 15:51 43.06067 7.96226 25880 ft 401 kts 97°
2026-04-23 15:52 43.05640 7.99993 26372 ft 401 kts 98°
2026-04-23 15:52 43.05210 8.03762 26863 ft 401 kts 98°
2026-04-23 15:52 43.04774 8.07537 27313 ft 403 kts 98°
2026-04-23 15:52 43.04336 8.11327 27743 ft 404 kts 98°
2026-04-23 15:53 43.03896 8.15133 28169 ft 406 kts 98°
2026-04-23 15:53 43.03453 8.18954 28589 ft 408 kts 98°
2026-04-23 15:53 43.03005 8.22798 29002 ft 410 kts 98°
2026-04-23 15:53 43.02560 8.26600 29404 ft 412 kts 98°
2026-04-23 15:54 43.02104 8.30474 29801 ft 413 kts 98°
2026-04-23 15:54 43.01622 8.34357 30193 ft 415 kts 101°
2026-04-23 15:54 43.00786 8.38187 30580 ft 417 kts 110°
2026-04-23 15:54 42.99552 8.41726 30904 ft 420 kts 116°
2026-04-23 15:55 42.98166 8.45242 31189 ft 422 kts 116°
2026-04-23 15:55 42.96773 8.48784 31467 ft 424 kts 116°
2026-04-23 15:55 42.95373 8.52348 31740 ft 427 kts 116°
2026-04-23 15:55 42.93969 8.55924 32101 ft 427 kts 116°
2026-04-23 15:56 42.92567 8.59491 32486 ft 427 kts 116°
2026-04-23 15:56 42.91165 8.63043 32865 ft 427 kts 116°
2026-04-23 15:56 42.89758 8.66608 33240 ft 427 kts 116°
2026-04-23 15:56 42.88348 8.70179 33588 ft 428 kts 116°
2026-04-23 15:57 42.86933 8.73753 33976 ft 428 kts 116°
2026-04-23 15:57 42.85516 8.77326 34371 ft 427 kts 116°
2026-04-23 15:57 42.84102 8.80888 34661 ft 428 kts 116°
2026-04-23 15:57 42.82685 8.84457 34923 ft 429 kts 116°
2026-04-23 15:58 42.81263 8.88038 35173 ft 430 kts 116°
2026-04-23 15:58 42.79837 8.91628 35430 ft 432 kts 116°
2026-04-23 15:58 42.78407 8.95223 35681 ft 433 kts 116°
2026-04-23 15:58 42.76970 8.98826 35921 ft 434 kts 116°
2026-04-23 15:59 42.75522 9.02447 36158 ft 435 kts 116°
2026-04-23 15:59 42.74070 9.06063 36388 ft 436 kts 116°
2026-04-23 15:59 42.72612 9.09688 36633 ft 437 kts 116°
2026-04-23 15:59 42.71148 9.13320 36885 ft 438 kts 116°
2026-04-23 16:00 42.69684 9.16955 37092 ft 439 kts 116°
2026-04-23 16:00 42.66758 9.24224 37193 ft 437 kts 116°
2026-04-23 16:01 42.63844 9.31454 37189 ft 436 kts 116°
2026-04-23 16:01 42.60924 9.38699 37193 ft 438 kts 116°
2026-04-23 16:02 42.57985 9.45951 37193 ft 438 kts 115°
2026-04-23 16:02 42.55750 9.53554 37189 ft 433 kts 106°
2026-04-23 16:03 42.53727 9.61240 37193 ft 433 kts 107°
2026-04-23 16:03 42.51695 9.68924 37194 ft 433 kts 107°
2026-04-23 16:04 42.49826 9.76664 37196 ft 430 kts 98°
2026-04-23 16:04 42.48651 9.84582 37205 ft 429 kts 98°
2026-04-23 16:05 42.47322 9.91092 37196 ft 432 kts 104°
2026-04-23 16:05 42.45217 10.00094 37187 ft 432 kts 104°
2026-04-23 16:06 42.43410 10.07851 37184 ft 432 kts 104°
2026-04-23 16:06 42.41600 10.15607 37181 ft 432 kts 104°
2026-04-23 16:07 42.39785 10.23363 37206 ft 432 kts 104°
2026-04-23 16:07 42.37959 10.31106 37197 ft 432 kts 104°
2026-04-23 16:08 42.36130 10.38837 37195 ft 431 kts 104°
2026-04-23 16:08 42.34302 10.46558 37187 ft 431 kts 104°
2026-04-23 16:09 42.32472 10.54270 37186 ft 431 kts 104°
2026-04-23 16:09 42.30638 10.61971 37203 ft 430 kts 104°
2026-04-23 16:10 42.28806 10.69638 37195 ft 428 kts 104°
2026-04-23 16:10 42.26976 10.77269 37187 ft 426 kts 104°
2026-04-23 16:11 42.25153 10.84823 37185 ft 426 kts 104°
2026-04-23 16:11 42.23316 10.92412 37175 ft 425 kts 104°
2026-04-23 16:12 42.21474 10.99982 37171 ft 424 kts 104°
2026-04-23 16:12 42.19942 11.06269 37167 ft 424 kts 104°
2026-04-23 16:13 42.18088 11.13873 37156 ft 424 kts 104°
2026-04-23 16:13 42.15332 11.25125 37156 ft 423 kts 104°
2026-04-23 16:14 42.13485 11.32659 37157 ft 423 kts 104°
2026-04-23 16:14 42.11626 11.40180 37158 ft 423 kts 104°
2026-04-23 16:15 42.09766 11.47689 37150 ft 422 kts 104°
2026-04-23 16:15 42.07903 11.55188 37153 ft 422 kts 104°
2026-04-23 16:16 42.06037 11.62677 37137 ft 422 kts 104°
2026-04-23 16:16 42.04165 11.70155 37157 ft 422 kts 105°
2026-04-23 16:17 42.02293 11.77633 37179 ft 421 kts 105°
2026-04-23 16:17 42.00420 11.85091 37212 ft 421 kts 105°
2026-04-23 16:18 41.98541 11.92551 37240 ft 421 kts 104°
2026-04-23 16:18 41.96654 12.00008 37265 ft 421 kts 105°
2026-04-23 16:19 41.94756 12.07465 37284 ft 422 kts 105°
2026-04-23 16:19 41.92856 12.14932 37275 ft 423 kts 105°
2026-04-23 16:20 41.90960 12.22356 37102 ft 423 kts 105°
2026-04-23 16:20 41.89034 12.29867 37103 ft 423 kts 105°
2026-04-23 16:21 41.87126 12.37283 37103 ft 423 kts 105°
2026-04-23 16:21 41.85199 12.44743 37084 ft 423 kts 105°
2026-04-23 16:22 41.83270 12.52203 37080 ft 424 kts 105°
2026-04-23 16:22 41.81329 12.59663 37079 ft 424 kts 105°
2026-04-23 16:23 41.79382 12.67124 37080 ft 424 kts 105°
2026-04-23 16:23 41.77434 12.74582 37082 ft 424 kts 105°
2026-04-23 16:24 41.75482 12.82030 37101 ft 424 kts 106°
2026-04-23 16:24 41.73523 12.89483 37112 ft 424 kts 106°
2026-04-23 16:25 41.71563 12.96937 37111 ft 424 kts 106°
2026-04-23 16:25 41.69595 13.04385 37110 ft 424 kts 106°
2026-04-23 16:26 41.67621 13.11827 37110 ft 424 kts 106°
2026-04-23 16:26 41.65638 13.19277 37116 ft 425 kts 106°
2026-04-23 16:27 41.63656 13.26714 37105 ft 425 kts 106°
2026-04-23 16:27 41.61668 13.34160 37106 ft 425 kts 106°
2026-04-23 16:28 41.59668 13.41606 37105 ft 426 kts 106°
2026-04-23 16:28 41.57659 13.49048 37105 ft 426 kts 106°
2026-04-23 16:29 41.55652 13.56494 37110 ft 426 kts 106°
2026-04-23 16:29 41.53651 13.63891 37102 ft 427 kts 107°
2026-04-23 16:30 41.51625 13.71335 37105 ft 427 kts 107°
2026-04-23 16:30 41.49595 13.78781 37108 ft 427 kts 107°
2026-04-23 16:31 41.48577 13.82506 36897 ft 428 kts 107°
2026-04-23 16:31 41.47561 13.86216 36666 ft 426 kts 106°
2026-04-23 16:31 41.46544 13.89926 36411 ft 424 kts 106°
2026-04-23 16:31 41.45529 13.93609 36168 ft 422 kts 106°
2026-04-23 16:32 41.44520 13.97274 35915 ft 420 kts 106°
2026-04-23 16:32 41.43516 14.00919 35669 ft 418 kts 105°
2026-04-23 16:32 41.42520 14.04541 35419 ft 415 kts 105°
2026-04-23 16:32 41.41531 14.08130 35183 ft 411 kts 105°
2026-04-23 16:33 41.40552 14.11676 34941 ft 407 kts 105°
2026-04-23 16:33 41.39579 14.15193 34707 ft 403 kts 105°
2026-04-23 16:33 41.38612 14.18684 34466 ft 399 kts 105°
2026-04-23 16:33 41.37656 14.22133 34266 ft 395 kts 104°
2026-04-23 16:34 41.36710 14.25532 34009 ft 391 kts 104°
2026-04-23 16:34 41.35766 14.28920 33731 ft 388 kts 104°
2026-04-23 16:34 41.34832 14.32279 33445 ft 385 kts 104°
2026-04-23 16:34 41.33904 14.35612 33185 ft 383 kts 104°
2026-04-23 16:35 41.32977 14.38923 32926 ft 381 kts 104°
2026-04-23 16:35 41.32054 14.42215 32661 ft 379 kts 104°
2026-04-23 16:35 41.31134 14.45490 32397 ft 377 kts 104°
2026-04-23 16:35 41.30217 14.48750 32138 ft 376 kts 104°
2026-04-23 16:36 41.29307 14.51997 31885 ft 374 kts 104°
2026-04-23 16:36 41.28402 14.55231 31630 ft 372 kts 104°
2026-04-23 16:36 41.27495 14.58455 31376 ft 371 kts 104°
2026-04-23 16:36 41.26591 14.61655 31126 ft 369 kts 104°
2026-04-23 16:37 41.25693 14.64841 30893 ft 374 kts 104°
2026-04-23 16:37 41.24764 14.68172 30648 ft 393 kts 105°
2026-04-23 16:37 41.23801 14.71613 30406 ft 400 kts 105°
2026-04-23 16:37 41.22823 14.75083 30151 ft 401 kts 105°
2026-04-23 16:38 41.21838 14.78551 29866 ft 400 kts 105°
2026-04-23 16:38 41.20851 14.82001 29581 ft 399 kts 105°
2026-04-23 16:38 41.19864 14.85436 29304 ft 397 kts 105°
2026-04-23 16:38 41.18881 14.88858 29022 ft 396 kts 105°
2026-04-23 16:39 41.17904 14.92271 28755 ft 395 kts 105°
2026-04-23 16:39 41.16936 14.95671 28480 ft 394 kts 105°
2026-04-23 16:39 41.15984 14.99024 28209 ft 393 kts 105°
2026-04-23 16:39 41.15021 15.02407 27938 ft 391 kts 105°
2026-04-23 16:40 41.14055 15.05776 27675 ft 390 kts 105°
2026-04-23 16:40 41.13089 15.09129 27409 ft 389 kts 105°
2026-04-23 16:40 41.12123 15.12465 27152 ft 387 kts 105°
2026-04-23 16:40 41.11168 15.15762 26690 ft 380 kts 105°
2026-04-23 16:41 41.10450 15.19087 26158 ft 371 kts 97°
2026-04-23 16:41 41.09921 15.22415 25648 ft 367 kts 97°
2026-04-23 16:41 41.09388 15.25710 25142 ft 364 kts 97°
2026-04-23 16:41 41.08853 15.28983 24672 ft 362 kts 97°
2026-04-23 16:42 41.08321 15.32233 24173 ft 360 kts 97°
2026-04-23 16:42 41.07789 15.35469 23706 ft 358 kts 97°
2026-04-23 16:42 41.07256 15.38679 23202 ft 356 kts 97°
2026-04-23 16:42 41.06725 15.41861 22764 ft 351 kts 97°
2026-04-23 16:43 41.06203 15.45003 22335 ft 347 kts 97°
2026-04-23 16:43 41.05690 15.48110 21903 ft 343 kts 97°
2026-04-23 16:43 41.05182 15.51181 21480 ft 340 kts 97°
2026-04-23 16:43 41.04681 15.54221 21060 ft 336 kts 97°
2026-04-23 16:44 41.04184 15.57239 20621 ft 334 kts 97°
2026-04-23 16:44 41.03687 15.60229 20193 ft 331 kts 97°
2026-04-23 16:44 41.03191 15.63201 19753 ft 330 kts 97°
2026-04-23 16:44 41.02696 15.66163 19316 ft 329 kts 97°
2026-04-23 16:45 41.02091 15.69093 18857 ft 333 kts 105°
2026-04-23 16:45 41.01067 15.71864 18387 ft 339 kts 116°
2026-04-23 16:45 40.99666 15.74407 17869 ft 342 kts 122°
2026-04-23 16:45 40.98219 15.76899 17396 ft 341 kts 122°
2026-04-23 16:46 40.96786 15.79388 16921 ft 339 kts 121°
2026-04-23 16:46 40.95364 15.81870 16460 ft 338 kts 121°
2026-04-23 16:46 40.93946 15.84347 16003 ft 337 kts 122°
2026-04-23 16:46 40.92529 15.86814 15542 ft 337 kts 122°
2026-04-23 16:47 40.91112 15.89278 15087 ft 336 kts 122°
2026-04-23 16:47 40.89712 15.91711 14886 ft 327 kts 122°
2026-04-23 16:47 40.88353 15.94060 14755 ft 317 kts 122°
2026-04-23 16:47 40.87032 15.96336 14631 ft 307 kts 122°
2026-04-23 16:48 40.85752 15.98542 14516 ft 298 kts 122°
2026-04-23 16:48 40.84516 16.00695 14414 ft 289 kts 119°
2026-04-23 16:48 40.83649 16.02997 14259 ft 274 kts 101°
2026-04-23 16:48 40.83358 16.05424 14070 ft 266 kts 86°
2026-04-23 16:49 40.83461 16.07039 13701 ft 267 kts 75°
2026-04-23 16:49 40.84242 16.10046 13348 ft 260 kts 66°
2026-04-23 16:49 40.84891 16.12281 12941 ft 259 kts 66°
2026-04-23 16:49 40.85538 16.14524 12392 ft 257 kts 66°
2026-04-23 16:50 40.86171 16.16731 11830 ft 257 kts 66°
2026-04-23 16:50 40.87103 16.18658 11554 ft 247 kts 39°
2026-04-23 16:50 40.88617 16.19530 11305 ft 245 kts
2026-04-23 16:50 40.90325 16.19107 10863 ft 250 kts 342°
2026-04-23 16:51 40.91930 16.18296 10481 ft 244 kts 342°
2026-04-23 16:51 40.93495 16.17490 10115 ft 246 kts 341°
2026-04-23 16:51 40.95133 16.16939 9686 ft 242 kts
2026-04-23 16:51 40.96680 16.17623 9319 ft 236 kts 37°
2026-04-23 16:52 40.97625 16.19357 9040 ft 234 kts 68°
2026-04-23 16:52 40.98126 16.21352 9015 ft 226 kts 67°
2026-04-23 16:52 40.98682 16.23291 9012 ft 224 kts 65°
2026-04-23 16:52 40.99258 16.25207 9017 ft 223 kts 65°
2026-04-23 16:53 40.99826 16.27098 8683 ft 220 kts 65°
2026-04-23 16:53 41.00386 16.28985 8204 ft 220 kts 65°
2026-04-23 16:53 41.00935 16.30859 7771 ft 218 kts 66°
2026-04-23 16:53 41.01478 16.32725 7347 ft 216 kts 66°
2026-04-23 16:54 41.02016 16.34580 6932 ft 214 kts 66°
2026-04-23 16:54 41.02547 16.36418 6512 ft 213 kts 67°
2026-04-23 16:54 41.03073 16.38247 6138 ft 213 kts 66°
2026-04-23 16:54 41.03595 16.40071 5859 ft 211 kts 67°
2026-04-23 16:55 41.04113 16.41884 5545 ft 211 kts 66°
2026-04-23 16:55 41.04633 16.43706 5260 ft 211 kts 66°
2026-04-23 16:55 41.05154 16.45529 4939 ft 212 kts 66°
2026-04-23 16:55 41.05676 16.47357 4636 ft 212 kts 66°
2026-04-23 16:56 41.06201 16.49187 4285 ft 212 kts 66°
2026-04-23 16:56 41.06728 16.51020 3981 ft 212 kts 65°
2026-04-23 16:56 41.07077 16.52233 3751 ft 214 kts 65°
2026-04-23 16:56 41.07773 16.54688 3315 ft 208 kts 65°
2026-04-23 16:57 41.08271 16.56441 3048 ft 198 kts 64°
2026-04-23 16:57 41.08741 16.58090 2781 ft 188 kts 63°
2026-04-23 16:57 41.09184 16.59645 2529 ft 177 kts 63°
2026-04-23 16:57 41.09599 16.61105 2302 ft 159 kts 63°
2026-04-23 16:58 41.09969 16.62406 2093 ft 145 kts 63°
2026-04-23 16:58 41.10314 16.63616 1906 ft 135 kts 61°
2026-04-23 16:58 41.10641 16.64759 1731 ft 132 kts 60°
2026-04-23 16:58 41.10965 16.65896 1535 ft 134 kts 65°
2026-04-23 16:59 41.11295 16.67051 1363 ft 133 kts 63°
2026-04-23 16:59 41.11623 16.68205 1169 ft 135 kts 63°
2026-04-23 16:59 41.11960 16.69378 994 ft 136 kts 63°
2026-04-23 16:59 41.12295 16.70552 821 ft 134 kts 64°
2026-04-23 17:00 41.12512 16.71315 655 ft 135 kts 60°
2026-04-23 17:00 41.12844 16.72481 453 ft 135 kts 65°
2026-04-23 17:00 41.13170 16.73649 264 ft 134 kts 63°
2026-04-23 17:00 41.13487 16.74779 142 ft 120 kts 68°
2026-04-23 17:01 41.13734 16.75639 140 ft 76 kts 70°
2026-04-23 17:01 41.13878 16.76149 132 ft 54 kts 69°
2026-04-23 17:01 41.13991 16.76552 121 ft 20 kts 71°
2026-04-23 17:01 41.13967 16.76726 122 ft 20 kts 116°
2026-04-23 17:02 41.13931 16.76812 124 ft 10 kts 135°
2026-04-23 17:02 41.13873 16.76788 124 ft 9 kts 231°
2026-04-23 17:02 41.13833 16.76769 129 ft 3 kts 179°
2026-04-23 17:02 41.13828 16.76770 130 ft 0 kts 175°
2026-04-23 17:03 41.13808 16.76775 131 ft 5 kts 165°
2026-04-23 17:03 41.13772 16.76835 132 ft 12 kts 109°
2026-04-23 17:03 41.13735 16.76879 135 ft 1 kts 165°
2026-04-23 17:03 41.13732 16.76880 135 ft 2 kts 165°
2026-04-23 17:04 41.13727 16.76880 135 ft 0 kts 178°
2026-04-23 17:04 41.13716 16.76874 135 ft 0 kts 203°